FW6625 Weather Reports


time (UTC)temp
C
wind
direction
speed
KPH
gust
KPH
rain 1hr
cm
rain 24hr
cm
rain mn
cm
humidity
%
barometer
mb
20260502123056 12 353 4.8 11.3 0.00 1.88 0.00 92 1018.6
20260502121541 12 306 4.8 9.7 0.00 1.88 0.00 92 1018.4
20260502114544 12 303 3.2 12.9 0.00 1.88 0.00 93 1017.8
20260502113042 12 323 3.2 11.3 0.00 1.88 0.00 93 1017.6
20260502111543 12 298 3.2 6.4 0.00 1.88 0.00 93 1017.2
20260502110039 13 328 1.6 6.4 0.00 1.88 0.00 93 1017.3
20260502104546 13 284 1.6 8.0 0.00 1.88 0.00 93 1016.9
20260502103038 13 276 3.2 8.0 0.00 1.88 0.00 93 1016.6
20260502101559 13 319 3.2 9.7 0.00 1.88 0.00 93 1016.5
20260502070051 13 349 6.4 14.5 0.00 1.88 0.00 94 1015.9
20260502064543 13 340 4.8 14.5 0.00 1.88 0.00 93 1015.6
20260502063042 13 319 6.4 14.5 0.00 1.88 0.00 93 1015.3
20260502061536 13 292 6.4 25.7 0.00 1.88 0.00 93 1015.2
20260502060038 14 2 8.0 19.3 0.00 1.88 0.00 94 1015.2
20260502054540 13 349 8.0 19.3 0.00 1.88 0.00 94 1015.2
20260502053039 14 322 11.3 25.7 0.00 1.88 0.00 94 1015.3
20260502051540 14 323 9.7 19.3 0.00 1.88 0.00 95 1014.8
20260502050042 15 311 8.0 16.1 0.00 1.88 0.00 95 1014.6
20260502044539 15 312 8.0 16.1 0.00 1.88 1.88 95 1014.1
20260502043039 15 340 6.4 19.3 0.00 1.88 1.88 96 1013.9
20260502041541 15 319 8.0 17.7 0.00 1.88 1.88 96 1014.1
20260502040043 15 300 6.4 14.5 0.00 1.88 1.88 96 1014.2
20260502034537 15 352 4.8 12.9 0.00 1.88 1.88 96 1013.9
20260502033038 15 15 6.4 12.9 0.00 1.88 1.88 96 1013.9
20260502031542 15 353 4.8 11.3 0.05 1.88 1.88 97 1013.6
20260502030053 15 8 4.8 12.9 0.08 1.88 1.88 96 1013.2
20260502024544 15 330 6.4 11.3 0.08 1.88 1.88 96 1012.9
20260502023100 15 346 4.8 20.9 0.23 1.88 1.88 96 1012.6
20260502021543 15 352 4.8 12.9 0.33 1.83 1.83 96 1013.1
20260502020038 15 326 6.4 11.3 0.33 1.80 1.80 96 1012.7
20260502014546 16 328 6.4 17.7 0.33 1.80 1.80 96 1012.4
20260502013043 16 248 8.0 19.3 0.23 1.65 1.65 96 1012.8
20260502011543 16 338 8.0 14.5 0.20 1.47 1.47 96 1011.9
20260502010041 16 340 8.0 14.5 0.25 1.47 1.47 96 1011.9
20260502004545 16 340 9.7 17.7 0.25 1.47 1.47 96 1011.2
20260502003044 16 273 11.3 27.4 0.20 1.42 1.42 95 1010.8
20260502001538 17 299 4.8 22.5 0.03 1.24 1.24 95 1010.8
20260502000041 17 287 8.0 17.7 0.00 1.22 1.22 95 1009.7
20260501234542 17 328 9.7 20.9 0.00 1.22 1.22 96 1008.2
20260501233040 17 20 9.7 19.3 0.00 1.22 1.22 96 1008.3
20260501231539 17 330 8.0 19.3 0.00 1.22 1.22 96 1008.5
20260501230040 17 324 8.0 22.5 0.00 1.22 1.22 96 1007.9
20260501224544 17 334 9.7 19.3 0.05 1.22 1.22 96 1007.9
20260501223046 17 340 8.0 20.9 0.05 1.22 1.22 96 1008.5
20260501221543 17 347 8.0 17.7 0.08 1.22 1.22 96 1008.6
20260501220040 17 311 6.4 12.9 0.18 1.22 1.22 96 1009.1
20260501214538 18 32 4.8 14.5 0.76 1.17 1.17 96 1009.7
20260501213041 18 314 6.4 14.5 0.86 1.17 1.17 96 1008.6
20260501211537 18 355 8.0 19.3 0.86 1.14 1.14 95 1008.5
20260501210037 18 355 4.8 12.9 0.76 1.04 1.04 95 1008.8
20260501204544 18 6 3.2 16.1 0.28 0.41 0.41 95 1010.4
20260501203053 18 302 8.0 17.7 0.20 0.30 0.30 95 1008.0
20260501201540 18 335 6.4 16.1 0.18 0.28 0.28 95 1007.8
20260501200037 18 358 4.8 19.3 0.20 0.28 0.28 94 1006.7
20260501194538 18 46 6.4 14.5 0.05 0.13 0.13 93 1007.9
20260501193037 18 335 6.4 12.9 0.03 0.10 0.10 92 1008.3
20260501191542 19 325 3.2 14.5 0.03 0.10 0.10 90 1008.7
20260501190037 20 349 6.4 16.1 0.00 0.08 0.08 87 1008.9
20260501184558 20 359 6.4 16.1 0.00 0.08 0.08 88 1008.7
20260501183043 20 357 8.0 17.7 0.00 0.08 0.08 90 1008.9
20260501181539 19 358 4.8 22.5 0.00 0.08 0.08 91 1009.1
20260501180040 19 359 11.3 17.7 0.00 0.08 0.08 91 1009.1
20260501174540 19 320 6.4 17.7 0.00 0.08 0.08 92 1009.5
20260501173037 19 346 8.0 19.3 0.00 0.08 0.08 92 1009.6
20260501171541 20 345 8.0 17.7 0.00 0.08 0.08 92 1009.9
20260501170039 20 346 9.7 16.1 0.00 0.08 0.08 91 1010.3
20260501164552 21 355 6.4 14.5 0.00 0.08 0.08 92 1010.3
20260501163040 20 340 8.0 14.5 0.00 0.08 0.08 93 1010.3
20260501161542 20 304 4.8 12.9 0.00 0.08 0.08 93 1010.4
20260501160041 20 12 4.8 11.3 0.00 0.08 0.08 94 1010.4
20260501154543 20 341 3.2 12.9 0.00 0.08 0.08 94 1010.4
20260501153039 20 35 6.4 11.3 0.00 0.08 0.08 94 1009.9
20260501151540 20 4 8.0 16.1 0.00 0.08 0.08 94 1009.9
20260501150044 20 331 6.4 14.5 0.00 0.08 0.08 95 1009.9
20260501144542 20 302 4.8 9.7 0.05 0.08 0.08 95 1010.7